User: anonymous   Login
Location: PFO Observatory
(45.2937°N, 66.0991°W)
Time: 14:18:18
(UTC-04:00)
Language:

Cosmos 1151 Rocket - Orbit

View from above orbital plane
View from above orbital plane
View from above satellite
View from above satellite

Ground track
Ground track

The orbit data is extracted from the following two-line orbital elements,

1 11672U 80005B   16337.86921662 +.00000139 +00000-0 +12473-4 0  9994
2 11672 082.5165 264.6548 0015272 247.0325 112.9281 14.87833598973088
Epoch (UTC): 02 December 2016 20:51:40
Eccentricity: 0.0015272
inclination: 82.5165°
perigee height: 594 km
apogee height: 615 km
right ascension of ascending node: 264.6548°
argument of perigee: 247.0325°
revolutions per day: 14.87833598
mean anomaly at epoch: 112.9281°
orbit number at epoch: 97308

The dashed part of the orbit path shows where the satellite is in the earth's shadow,  

DLR